owner,sensor,date,latitude,longitude,vertical_datum,direction_of_sea_water_velocity,sea_water_speed,upward_sea_water_velocity,qcFlag 
TABS,ioos:station:wmo:42046:1,2006-05-01T00:00:00Z,27.8903,-94.0367,2.0,127.6619265,44.12421671,-99999.0,'11111222,11111222,99999999' 
TABS,ioos:station:wmo:42046:1,2006-05-01T00:30:00Z,27.8903,-94.0367,2.0,130.2731667,43.76318316,-99999.0,'11111222,11111222,99999999' 
TABS,ioos:station:wmo:42046:1,2006-05-01T01:00:00Z,27.8903,-94.0367,2.0,128.425627,42.42964176,-99999.0,'11111222,11111222,99999999' 
TABS,ioos:station:wmo:42046:1,2006-05-01T01:30:00Z,27.8903,-94.0367,2.0,126.4454507,38.88506654,-99999.0,'11111222,11111222,99999999' 
TABS,ioos:station:wmo:42046:1,2006-05-01T02:00:00Z,27.8903,-94.0367,2.0,131.6207294,37.42859869,-99999.0,'11111222,11111222,99999999' 
TABS,ioos:station:wmo:42046:1,2006-05-01T02:30:00Z,27.8903,-94.0367,2.0,129.4014663,35.22638216,-99999.0,'11111222,11111222,99999999' 
TABS,ioos:station:wmo:42046:1,2006-05-01T03:00:00Z,27.8903,-94.0367,2.0,133.2482803,27.7598415,-99999.0,'11111222,11111222,99999999' 
TABS,ioos:station:wmo:42046:1,2006-05-01T03:30:00Z,27.8903,-94.0367,2.0,131.5821086,25.02659585,-99999.0,'11111222,11111222,99999999' 
TABS,ioos:station:wmo:42046:1,2006-05-01T04:00:00Z,27.8903,-94.0367,2.0,138.2141067,21.56532634,-99999.0,'11111222,11111222,99999999' 
TABS,ioos:station:wmo:42046:1,2006-05-01T04:30:00Z,27.8903,-94.0367,2.0,138.9794795,16.60755551,-99999.0,'11111222,11111222,99999999' 
TABS,ioos:station:wmo:42046:1,2006-05-01T05:00:00Z,27.8903,-94.0367,2.0,137.6169972,15.17619847,-99999.0,'11111222,11111222,99999999' 
TABS,ioos:station:wmo:42046:1,2006-05-01T05:30:00Z,27.8903,-94.0367,2.0,135.3632872,10.03404704,-99999.0,'11111222,11111222,99999999' 
TABS,ioos:station:wmo:42046:1,2006-05-01T06:00:00Z,27.8903,-94.0367,2.0,114.2166412,7.094293481,-99999.0,'11133222,11111222,99999999' 
TABS,ioos:station:wmo:42046:1,2006-05-01T06:30:00Z,27.8903,-94.0367,2.0,74.4866716,8.561927353,-99999.0,'11133222,11111222,99999999' 
TABS,ioos:station:wmo:42046:1,2006-05-01T07:00:00Z,27.8903,-94.0367,2.0,62.46284191,11.334024,-99999.0,'11111222,11111222,99999999' 
TABS,ioos:station:wmo:42046:1,2006-05-01T07:30:00Z,27.8903,-94.0367,2.0,53.85841449,14.0051312,-99999.0,'11111222,11111222,99999999' 
TABS,ioos:station:wmo:42046:1,2006-05-01T08:00:00Z,27.8903,-94.0367,2.0,57.33774797,17.4730936,-99999.0,'11111222,11111222,99999999' 
TABS,ioos:station:wmo:42046:1,2006-05-01T08:30:00Z,27.8903,-94.0367,2.0,51.40753053,18.62841915,-99999.0,'11111222,11111222,99999999' 
TABS,ioos:station:wmo:42046:1,2006-05-01T09:00:00Z,27.8903,-94.0367,2.0,54.94386999,15.35569276,-99999.0,'11111222,11111222,99999999' 
TABS,ioos:station:wmo:42046:1,2006-05-01T09:30:00Z,27.8903,-94.0367,2.0,40.70733757,22.29398125,-99999.0,'11111222,11111222,99999999' 
TABS,ioos:station:wmo:42046:1,2006-05-01T10:00:00Z,27.8903,-94.0367,2.0,44.08550148,22.14940631,-99999.0,'11111222,11111222,99999999' 
TABS,ioos:station:wmo:42046:1,2006-05-01T10:30:00Z,27.8903,-94.0367,2.0,51.01169287,24.5087515,-99999.0,'11111222,11111222,99999999' 
TABS,ioos:station:wmo:42046:1,2006-05-01T11:00:00Z,27.8903,-94.0367,2.0,56.1892694,22.37388209,-99999.0,'11111222,11111222,99999999' 
TABS,ioos:station:wmo:42046:1,2006-05-01T11:30:00Z,27.8903,-94.0367,2.0,60.3412063,28.090178,-99999.0,'11111222,11111222,99999999' 
TABS,ioos:station:wmo:42046:1,2006-05-01T12:00:00Z,27.8903,-94.0367,2.0,70.85190732,27.43804658,-99999.0,'11111222,11111222,99999999' 
TABS,ioos:station:wmo:42046:1,2006-05-01T12:30:00Z,27.8903,-94.0367,2.0,63.40415292,33.21455855,-99999.0,'11111222,11111222,99999999' 
TABS,ioos:station:wmo:42046:1,2006-05-01T13:00:00Z,27.8903,-94.0367,2.0,66.69587409,34.20013158,-99999.0,'11111222,11111222,99999999' 
TABS,ioos:station:wmo:42046:1,2006-05-01T13:30:00Z,27.8903,-94.0367,2.0,70.26224769,32.12755982,-99999.0,'11111222,11111222,99999999' 
TABS,ioos:station:wmo:42046:1,2006-05-01T14:00:00Z,27.8903,-94.0367,2.0,74.83047984,33.47646487,-99999.0,'11111222,11111222,99999999' 
TABS,ioos:station:wmo:42046:1,2006-05-01T14:30:00Z,27.8903,-94.0367,2.0,71.44187803,36.76156281,-99999.0,'11111222,11111222,99999999' 
TABS,ioos:station:wmo:42046:1,2006-05-01T15:00:00Z,27.8903,-94.0367,2.0,72.66164437,37.17938273,-99999.0,'11111222,11111222,99999999' 
TABS,ioos:station:wmo:42046:1,2006-05-01T15:30:00Z,27.8903,-94.0367,2.0,73.40019573,36.43864021,-99999.0,'11111222,11111222,99999999' 
TABS,ioos:station:wmo:42046:1,2006-05-01T16:00:00Z,27.8903,-94.0367,2.0,75.83219181,41.18265776,-99999.0,'11111222,11111222,99999999' 
TABS,ioos:station:wmo:42046:1,2006-05-01T16:30:00Z,27.8903,-94.0367,2.0,72.53966875,41.46029546,-99999.0,'11111222,11111222,99999999' 
TABS,ioos:station:wmo:42046:1,2006-05-01T17:00:00Z,27.8903,-94.0367,2.0,71.6964057,41.39432328,-99999.0,'11111222,11111222,99999999' 
TABS,ioos:station:wmo:42046:1,2006-05-01T17:30:00Z,27.8903,-94.0367,2.0,73.29047337,42.53610819,-99999.0,'11111222,11111222,99999999' 
TABS,ioos:station:wmo:42046:1,2006-05-01T18:00:00Z,27.8903,-94.0367,2.0,75.26390829,47.05784738,-99999.0,'11111222,11111222,99999999' 
TABS,ioos:station:wmo:42046:1,2006-05-01T18:30:00Z,27.8903,-94.0367,2.0,77.45080125,48.69329831,-99999.0,'11111222,11111222,99999999' 
TABS,ioos:station:wmo:42046:1,2006-05-01T19:00:00Z,27.8903,-94.0367,2.0,84.16118962,48.46141764,-99999.0,'11111222,11111222,99999999' 
TABS,ioos:station:wmo:42046:1,2006-05-01T19:30:00Z,27.8903,-94.0367,2.0,88.2792408,47.6214752,-99999.0,'11111222,11111222,99999999' 
TABS,ioos:station:wmo:42046:1,2006-05-01T20:00:00Z,27.8903,-94.0367,2.0,91.19371899,51.36114679,-99999.0,'11111222,11111222,99999999' 
TABS,ioos:station:wmo:42046:1,2006-05-01T20:30:00Z,27.8903,-94.0367,2.0,96.21119993,51.01949431,-99999.0,'11111222,11111222,99999999' 
TABS,ioos:station:wmo:42046:1,2006-05-01T21:00:00Z,27.8903,-94.0367,2.0,94.10063777,51.60210267,-99999.0,'11111222,11111222,99999999' 
TABS,ioos:station:wmo:42046:1,2006-05-01T21:30:00Z,27.8903,-94.0367,2.0,99.94259992,48.24457793,-99999.0,'11111222,11111222,99999999' 
TABS,ioos:station:wmo:42046:1,2006-05-01T22:00:00Z,27.8903,-94.0367,2.0,105.5167869,50.50065049,-99999.0,'11111222,11111222,99999999' 
TABS,ioos:station:wmo:42046:1,2006-05-01T22:30:00Z,27.8903,-94.0367,2.0,110.4722316,52.03654966,-99999.0,'11111222,11111222,99999999' 
TABS,ioos:station:wmo:42046:1,2006-05-01T23:00:00Z,27.8903,-94.0367,2.0,113.4778556,51.98352143,-99999.0,'11111222,11111222,99999999' 
TABS,ioos:station:wmo:42046:1,2006-05-01T23:30:00Z,27.8903,-94.0367,2.0,116.1189247,51.69945841,-99999.0,'11111222,11111222,99999999' 
TABS,ioos:station:wmo:42046:1,2006-05-02T00:00:00Z,27.8903,-94.0367,2.0,119.2982115,49.33011251,-99999.0,'11111222,11111222,99999999' 
TABS,ioos:station:wmo:42046:1,2006-05-02T00:30:00Z,27.8903,-94.0367,2.0,124.9337354,49.19408298,-99999.0,'11111222,11111222,99999999' 
TABS,ioos:station:wmo:42046:1,2006-05-02T01:00:00Z,27.8903,-94.0367,2.0,129.6464696,47.51979061,-99999.0,'11111222,11111222,99999999' 
TABS,ioos:station:wmo:42046:1,2006-05-02T01:30:00Z,27.8903,-94.0367,2.0,132.3635453,46.27254586,-99999.0,'11111222,11111222,99999999' 
TABS,ioos:station:wmo:42046:1,2006-05-02T02:00:00Z,27.8903,-94.0367,2.0,134.4364061,46.73494731,-99999.0,'11111222,11111222,99999999' 
TABS,ioos:station:wmo:42046:1,2006-05-02T02:30:00Z,27.8903,-94.0367,2.0,137.7350765,43.41632066,-99999.0,'11111222,11111222,99999999' 
TABS,ioos:station:wmo:42046:1,2006-05-02T03:00:00Z,27.8903,-94.0367,2.0,142.894575,38.45632458,-99999.0,'11111222,11111222,99999999' 
TABS,ioos:station:wmo:42046:1,2006-05-02T03:30:00Z,27.8903,-94.0367,2.0,150.0065707,36.04731335,-99999.0,'11111222,11111222,99999999' 
TABS,ioos:station:wmo:42046:1,2006-05-02T04:00:00Z,27.8903,-94.0367,2.0,161.2842216,36.15159194,-99999.0,'11111222,11111222,99999999' 
TABS,ioos:station:wmo:42046:1,2006-05-02T04:30:00Z,27.8903,-94.0367,2.0,163.8929904,29.73730654,-99999.0,'11111222,11111222,99999999' 
TABS,ioos:station:wmo:42046:1,2006-05-02T05:00:00Z,27.8903,-94.0367,2.0,171.4169898,26.66865763,-99999.0,'11111222,11111222,99999999' 
TABS,ioos:station:wmo:42046:1,2006-05-02T05:30:00Z,27.8903,-94.0367,2.0,175.8944063,18.57766939,-99999.0,'11111222,11111222,99999999' 
TABS,ioos:station:wmo:42046:1,2006-05-02T06:00:00Z,27.8903,-94.0367,2.0,183.7716551,15.35325698,-99999.0,'11111222,11111222,99999999' 
TABS,ioos:station:wmo:42046:1,2006-05-02T06:30:00Z,27.8903,-94.0367,2.0,189.6568984,8.703332695,-99999.0,'11133222,11111222,99999999' 
TABS,ioos:station:wmo:42046:1,2006-05-02T07:00:00Z,27.8903,-94.0367,2.0,206.2972225,6.70380489,-99999.0,'11133222,11111222,99999999' 
TABS,ioos:station:wmo:42046:1,2006-05-02T07:30:00Z,27.8903,-94.0367,2.0,216.0369521,4.266450515,-99999.0,'11133222,11111222,99999999' 
TABS,ioos:station:wmo:42046:1,2006-05-02T08:00:00Z,27.8903,-94.0367,2.0,269.5221264,1.200041666,-99999.0,'11133222,11111222,99999999' 
TABS,ioos:station:wmo:42046:1,2006-05-02T08:30:00Z,27.8903,-94.0367,2.0,9.121215124,6.623752713,-99999.0,'11133222,11111222,99999999' 
TABS,ioos:station:wmo:42046:1,2006-05-02T09:00:00Z,27.8903,-94.0367,2.0,23.65146848,7.478134794,-99999.0,'11133222,11111222,99999999' 
TABS,ioos:station:wmo:42046:1,2006-05-02T09:30:00Z,27.8903,-94.0367,2.0,27.73517367,12.48433418,-99999.0,'11111222,11111222,99999999' 
TABS,ioos:station:wmo:42046:1,2006-05-02T10:00:00Z,27.8903,-94.0367,2.0,33.75679104,11.93160928,-99999.0,'11111222,11111222,99999999' 
TABS,ioos:station:wmo:42046:1,2006-05-02T10:30:00Z,27.8903,-94.0367,2.0,32.41244128,13.43263191,-99999.0,'11111222,11111222,99999999' 
TABS,ioos:station:wmo:42046:1,2006-05-02T11:00:00Z,27.8903,-94.0367,2.0,37.87125425,13.04799218,-99999.0,'11111222,11111222,99999999' 
TABS,ioos:station:wmo:42046:1,2006-05-02T11:30:00Z,27.8903,-94.0367,2.0,43.82338717,13.08423479,-99999.0,'11111222,11111222,99999999' 
TABS,ioos:station:wmo:42046:1,2006-05-02T12:00:00Z,27.8903,-94.0367,2.0,47.1831642,13.55092986,-99999.0,'11111222,11111222,99999999' 
TABS,ioos:station:wmo:42046:1,2006-05-02T12:30:00Z,27.8903,-94.0367,2.0,40.66223815,14.3033178,-99999.0,'11111222,11111222,99999999' 
TABS,ioos:station:wmo:42046:1,2006-05-02T13:00:00Z,27.8903,-94.0367,2.0,44.84649797,15.82510663,-99999.0,'11111222,11111222,99999999' 
TABS,ioos:station:wmo:42046:1,2006-05-02T13:30:00Z,27.8903,-94.0367,2.0,37.63038457,16.42744655,-99999.0,'11111222,11111222,99999999' 
TABS,ioos:station:wmo:42046:1,2006-05-02T14:00:00Z,27.8903,-94.0367,2.0,43.3313511,18.69676175,-99999.0,'11111222,11111222,99999999' 
TABS,ioos:station:wmo:42046:1,2006-05-02T14:30:00Z,27.8903,-94.0367,2.0,45.34222479,20.13168895,-99999.0,'11111222,11111222,99999999' 
TABS,ioos:station:wmo:42046:1,2006-05-02T15:00:00Z,27.8903,-94.0367,2.0,55.10813631,24.85881132,-99999.0,'11111222,11111222,99999999' 
TABS,ioos:station:wmo:42046:1,2006-05-02T15:30:00Z,27.8903,-94.0367,2.0,56.37407426,27.28571971,-99999.0,'11111222,11111222,99999999' 
TABS,ioos:station:wmo:42046:1,2006-05-02T16:00:00Z,27.8903,-94.0367,2.0,57.75786483,28.97846959,-99999.0,'11111222,11111222,99999999' 
TABS,ioos:station:wmo:42046:1,2006-05-02T16:30:00Z,27.8903,-94.0367,2.0,59.33629034,33.41181228,-99999.0,'11111222,11111222,99999999' 
TABS,ioos:station:wmo:42046:1,2006-05-02T17:00:00Z,27.8903,-94.0367,2.0,60.84647464,34.85561648,-99999.0,'11111222,11111222,99999999' 
TABS,ioos:station:wmo:42046:1,2006-05-02T17:30:00Z,27.8903,-94.0367,2.0,60.42261742,34.80553548,-99999.0,'11111222,11111222,99999999' 
TABS,ioos:station:wmo:42046:1,2006-05-02T18:00:00Z,27.8903,-94.0367,2.0,66.48538047,34.03645839,-99999.0,'11111222,11111222,99999999' 
TABS,ioos:station:wmo:42046:1,2006-05-02T18:30:00Z,27.8903,-94.0367,2.0,71.08725629,35.26378454,-99999.0,'11111222,11111222,99999999' 
TABS,ioos:station:wmo:42046:1,2006-05-02T19:00:00Z,27.8903,-94.0367,2.0,74.01031126,37.28241543,-99999.0,'11111222,11111222,99999999' 
TABS,ioos:station:wmo:42046:1,2006-05-02T19:30:00Z,27.8903,-94.0367,2.0,76.72868089,37.24466405,-99999.0,'11111222,11111222,99999999' 
TABS,ioos:station:wmo:42046:1,2006-05-02T20:00:00Z,27.8903,-94.0367,2.0,81.99954459,37.50503966,-99999.0,'11111222,11111222,99999999' 
TABS,ioos:station:wmo:42046:1,2006-05-02T20:30:00Z,27.8903,-94.0367,2.0,80.44144525,39.14345411,-99999.0,'11111222,11111222,99999999' 
TABS,ioos:station:wmo:42046:1,2006-05-02T21:00:00Z,27.8903,-94.0367,2.0,84.16052134,38.03738293,-99999.0,'11111222,11111222,99999999' 
TABS,ioos:station:wmo:42046:1,2006-05-02T21:30:00Z,27.8903,-94.0367,2.0,94.26241139,37.40345439,-99999.0,'11111222,11111222,99999999' 
TABS,ioos:station:wmo:42046:1,2006-05-02T22:00:00Z,27.8903,-94.0367,2.0,96.08768341,36.58631985,-99999.0,'11111222,11111222,99999999' 
TABS,ioos:station:wmo:42046:1,2006-05-02T22:30:00Z,27.8903,-94.0367,2.0,105.4139604,37.32247044,-99999.0,'11111222,11111222,99999999' 
TABS,ioos:station:wmo:42046:1,2006-05-02T23:00:00Z,27.8903,-94.0367,2.0,110.4375884,32.84766811,-99999.0,'11111222,11111222,99999999' 
TABS,ioos:station:wmo:42046:1,2006-05-02T23:30:00Z,27.8903,-94.0367,2.0,113.9372077,32.28699583,-99999.0,'11111222,11111222,99999999' 
TABS,ioos:station:wmo:42046:1,2006-05-03T00:00:00Z,27.8903,-94.0367,2.0,118.1619403,29.36650643,-99999.0,'11111222,11111222,99999999' 
TABS,ioos:station:wmo:42046:1,2006-05-03T00:30:00Z,27.8903,-94.0367,2.0,129.5516295,26.58711906,-99999.0,'11111222,11111222,99999999' 
TABS,ioos:station:wmo:42046:1,2006-05-03T01:00:00Z,27.8903,-94.0367,2.0,133.9935724,22.94915467,-99999.0,'11111222,11111222,99999999' 
TABS,ioos:station:wmo:42046:1,2006-05-03T01:30:00Z,27.8903,-94.0367,2.0,142.179997,22.79913376,-99999.0,'11111222,11111222,99999999' 
TABS,ioos:station:wmo:42046:1,2006-05-03T02:00:00Z,27.8903,-94.0367,2.0,147.2099797,23.30305774,-99999.0,'11111222,11111222,99999999' 
TABS,ioos:station:wmo:42046:1,2006-05-03T02:30:00Z,27.8903,-94.0367,2.0,146.5294318,22.42946723,-99999.0,'11111222,11111222,99999999' 
TABS,ioos:station:wmo:42046:1,2006-05-03T03:00:00Z,27.8903,-94.0367,2.0,157.6488368,20.32714687,-99999.0,'11111222,11111222,99999999' 
TABS,ioos:station:wmo:42046:1,2006-05-03T03:30:00Z,27.8903,-94.0367,2.0,157.0824618,17.92485704,-99999.0,'11111222,11111222,99999999' 
TABS,ioos:station:wmo:42046:1,2006-05-03T04:00:00Z,27.8903,-94.0367,2.0,161.9974279,15.49876447,-99999.0,'11111222,11111222,99999999' 
TABS,ioos:station:wmo:42046:1,2006-05-03T04:30:00Z,27.8903,-94.0367,2.0,159.5986033,12.99512601,-99999.0,'11111222,11111222,99999999' 
TABS,ioos:station:wmo:42046:1,2006-05-03T05:00:00Z,27.8903,-94.0367,2.0,175.0529894,12.98837942,-99999.0,'11111222,11111222,99999999' 
TABS,ioos:station:wmo:42046:1,2006-05-03T05:30:00Z,27.8903,-94.0367,2.0,179.0186089,10.51154128,-99999.0,'11111222,11111222,99999999' 
TABS,ioos:station:wmo:42046:1,2006-05-03T06:00:00Z,27.8903,-94.0367,2.0,190.9499537,4.68530682,-99999.0,'11133222,11111222,99999999' 
TABS,ioos:station:wmo:42046:1,2006-05-03T06:30:00Z,27.8903,-94.0367,2.0,222.9205575,2.143944962,-99999.0,'11133222,11111222,99999999' 
TABS,ioos:station:wmo:42046:1,2006-05-03T07:00:00Z,27.8903,-94.0367,2.0,280.2254444,3.21099673,-99999.0,'11133222,11111222,99999999' 
TABS,ioos:station:wmo:42046:1,2006-05-03T07:30:00Z,27.8903,-94.0367,2.0,310.2479483,2.987189314,-99999.0,'11133222,11111222,99999999' 
TABS,ioos:station:wmo:42046:1,2006-05-03T08:00:00Z,27.8903,-94.0367,2.0,335.5563128,5.074879309,-99999.0,'11133222,11111222,99999999' 
TABS,ioos:station:wmo:42046:1,2006-05-03T08:30:00Z,27.8903,-94.0367,2.0,6.420997113,7.064311715,-99999.0,'11133222,11111222,99999999' 
TABS,ioos:station:wmo:42046:1,2006-05-03T09:00:00Z,27.8903,-94.0367,2.0,24.78487911,8.349035872,-99999.0,'11133222,11111222,99999999' 
TABS,ioos:station:wmo:42046:1,2006-05-03T09:30:00Z,27.8903,-94.0367,2.0,31.29471537,12.47501503,-99999.0,'11111222,11111222,99999999' 
TABS,ioos:station:wmo:42046:1,2006-05-03T10:00:00Z,27.8903,-94.0367,2.0,43.48548875,16.31865497,-99999.0,'11111222,11111222,99999999' 
TABS,ioos:station:wmo:42046:1,2006-05-03T10:30:00Z,27.8903,-94.0367,2.0,50.57055168,16.97293434,-99999.0,'11111222,11111222,99999999' 
TABS,ioos:station:wmo:42046:1,2006-05-03T11:00:00Z,27.8903,-94.0367,2.0,56.5159149,14.66359438,-99999.0,'11111222,11111222,99999999' 
TABS,ioos:station:wmo:42046:1,2006-05-03T11:30:00Z,27.8903,-94.0367,2.0,58.95296469,17.68323783,-99999.0,'11111222,11111222,99999999' 
TABS,ioos:station:wmo:42046:1,2006-05-03T12:00:00Z,27.8903,-94.0367,2.0,64.34107092,18.38277727,-99999.0,'11111222,11111222,99999999' 
TABS,ioos:station:wmo:42046:1,2006-05-03T12:30:00Z,27.8903,-94.0367,2.0,66.64393349,21.4910051,-99999.0,'11111222,11111222,99999999' 
TABS,ioos:station:wmo:42046:1,2006-05-03T13:00:00Z,27.8903,-94.0367,2.0,77.31078519,22.07926856,-99999.0,'11111222,11111222,99999999' 
TABS,ioos:station:wmo:42046:1,2006-05-03T13:30:00Z,27.8903,-94.0367,2.0,79.52704909,22.55576201,-99999.0,'11111222,11111222,99999999' 
TABS,ioos:station:wmo:42046:1,2006-05-03T14:00:00Z,27.8903,-94.0367,2.0,88.60883983,25.53752729,-99999.0,'11111222,11111222,99999999' 
TABS,ioos:station:wmo:42046:1,2006-05-03T14:30:00Z,27.8903,-94.0367,2.0,84.49062375,26.35173239,-99999.0,'11111222,11111222,99999999' 
TABS,ioos:station:wmo:42046:1,2006-05-03T15:00:00Z,27.8903,-94.0367,2.0,94.36897336,28.09163043,-99999.0,'11111222,11111222,99999999' 
TABS,ioos:station:wmo:42046:1,2006-05-03T15:30:00Z,27.8903,-94.0367,2.0,91.99685539,26.11585917,-99999.0,'11111222,11111222,99999999' 
TABS,ioos:station:wmo:42046:1,2006-05-03T16:00:00Z,27.8903,-94.0367,2.0,95.77059254,27.5496098,-99999.0,'11111222,11111222,99999999' 
TABS,ioos:station:wmo:42046:1,2006-05-03T16:30:00Z,27.8903,-94.0367,2.0,100.6634788,27.29129715,-99999.0,'11111222,11111222,99999999' 
TABS,ioos:station:wmo:42046:1,2006-05-03T17:00:00Z,27.8903,-94.0367,2.0,104.980752,27.66009581,-99999.0,'11111222,11111222,99999999' 
TABS,ioos:station:wmo:42046:1,2006-05-03T17:30:00Z,27.8903,-94.0367,2.0,110.2054784,29.27136826,-99999.0,'11111222,11111222,99999999' 
TABS,ioos:station:wmo:42046:1,2006-05-03T18:00:00Z,27.8903,-94.0367,2.0,114.9652726,28.19438951,-99999.0,'11111222,11111222,99999999' 
TABS,ioos:station:wmo:42046:1,2006-05-03T18:30:00Z,27.8903,-94.0367,2.0,118.4238302,28.67700996,-99999.0,'11111222,11111222,99999999' 
TABS,ioos:station:wmo:42046:1,2006-05-03T19:00:00Z,27.8903,-94.0367,2.0,117.0385793,25.42943373,-99999.0,'11111222,11111222,99999999' 
TABS,ioos:station:wmo:42046:1,2006-05-03T19:30:00Z,27.8903,-94.0367,2.0,119.6839968,26.87710178,-99999.0,'11111222,11111222,99999999' 
TABS,ioos:station:wmo:42046:1,2006-05-03T20:00:00Z,27.8903,-94.0367,2.0,121.5002815,24.17207066,-99999.0,'11111222,11111222,99999999' 
TABS,ioos:station:wmo:42046:1,2006-05-03T20:30:00Z,27.8903,-94.0367,2.0,121.0544306,22.73902592,-99999.0,'11111222,11111222,99999999' 
TABS,ioos:station:wmo:42046:1,2006-05-03T21:00:00Z,27.8903,-94.0367,2.0,124.3030381,23.84792653,-99999.0,'11111222,11111222,99999999' 
TABS,ioos:station:wmo:42046:1,2006-05-03T21:30:00Z,27.8903,-94.0367,2.0,126.7961667,23.34001928,-99999.0,'11111222,11111222,99999999' 
TABS,ioos:station:wmo:42046:1,2006-05-03T22:00:00Z,27.8903,-94.0367,2.0,126.8379303,21.56600334,-99999.0,'11111222,11111222,99999999' 
TABS,ioos:station:wmo:42046:1,2006-05-03T22:30:00Z,27.8903,-94.0367,2.0,124.9669339,22.52642226,-99999.0,'11111222,11111222,99999999' 
TABS,ioos:station:wmo:42046:1,2006-05-03T23:00:00Z,27.8903,-94.0367,2.0,125.5313212,21.23379382,-99999.0,'11111222,11111222,99999999' 
TABS,ioos:station:wmo:42046:1,2006-05-03T23:30:00Z,27.8903,-94.0367,2.0,124.3663272,17.85704343,-99999.0,'11111222,11111222,99999999' 
TABS,ioos:station:wmo:42046:1,2006-05-04T00:00:00Z,27.8903,-94.0367,2.0,128.8438853,18.46295751,-99999.0,'11111222,11111222,99999999' 
TABS,ioos:station:wmo:42046:1,2006-05-04T00:30:00Z,27.8903,-94.0367,2.0,139.3635788,17.75033802,-99999.0,'11111222,11111222,99999999' 
TABS,ioos:station:wmo:42046:1,2006-05-04T01:00:00Z,27.8903,-94.0367,2.0,135.8494436,15.2610419,-99999.0,'11111222,11111222,99999999' 
TABS,ioos:station:wmo:42046:1,2006-05-04T01:30:00Z,27.8903,-94.0367,2.0,160.0493376,13.51081419,-99999.0,'11111222,11111222,99999999' 
TABS,ioos:station:wmo:42046:1,2006-05-04T02:00:00Z,27.8903,-94.0367,2.0,148.8873963,13.87599726,-99999.0,'11111222,11111222,99999999' 
TABS,ioos:station:wmo:42046:1,2006-05-04T02:30:00Z,27.8903,-94.0367,2.0,159.4647952,12.77153084,-99999.0,'11111222,11111222,99999999' 
TABS,ioos:station:wmo:42046:1,2006-05-04T03:00:00Z,27.8903,-94.0367,2.0,154.1266893,11.48081008,-99999.0,'11111222,11111222,99999999' 
TABS,ioos:station:wmo:42046:1,2006-05-04T03:30:00Z,27.8903,-94.0367,2.0,153.285981,8.608890753,-99999.0,'11133222,11111222,99999999' 
TABS,ioos:station:wmo:42046:1,2006-05-04T04:00:00Z,27.8903,-94.0367,2.0,170.4837916,5.262413895,-99999.0,'11133222,11111222,99999999' 
TABS,ioos:station:wmo:42046:1,2006-05-04T04:30:00Z,27.8903,-94.0367,2.0,104.0362106,4.782802526,-99999.0,'11133222,11111222,99999999' 
TABS,ioos:station:wmo:42046:1,2006-05-04T05:00:00Z,27.8903,-94.0367,2.0,99.07147636,7.230435672,-99999.0,'11133222,11111222,99999999' 
TABS,ioos:station:wmo:42046:1,2006-05-04T05:30:00Z,27.8903,-94.0367,2.0,73.92646342,7.982042345,-99999.0,'11133222,11111222,99999999' 
TABS,ioos:station:wmo:42046:1,2006-05-04T06:00:00Z,27.8903,-94.0367,2.0,86.20785285,6.955228249,-99999.0,'11133222,11111222,99999999' 
TABS,ioos:station:wmo:42046:1,2006-05-04T06:30:00Z,27.8903,-94.0367,2.0,64.82063161,7.027780588,-99999.0,'11133222,11111222,99999999' 
TABS,ioos:station:wmo:42046:1,2006-05-04T07:00:00Z,27.8903,-94.0367,2.0,53.48696035,8.672168126,-99999.0,'11133222,11111222,99999999' 
TABS,ioos:station:wmo:42046:1,2006-05-04T07:30:00Z,27.8903,-94.0367,2.0,56.79350734,11.83217647,-99999.0,'11111222,11111222,99999999' 
TABS,ioos:station:wmo:42046:1,2006-05-04T08:00:00Z,27.8903,-94.0367,2.0,63.53994791,12.20895163,-99999.0,'11111222,11111222,99999999' 
TABS,ioos:station:wmo:42046:1,2006-05-04T08:30:00Z,27.8903,-94.0367,2.0,66.18937873,13.02896773,-99999.0,'11111222,11111222,99999999' 
TABS,ioos:station:wmo:42046:1,2006-05-04T09:00:00Z,27.8903,-94.0367,2.0,59.61816724,18.40789233,-99999.0,'11111222,11111222,99999999' 
TABS,ioos:station:wmo:42046:1,2006-05-04T09:30:00Z,27.8903,-94.0367,2.0,56.12335351,18.72955152,-99999.0,'11111222,11111222,99999999' 
TABS,ioos:station:wmo:42046:1,2006-05-04T10:00:00Z,27.8903,-94.0367,2.0,63.52759118,22.14157402,-99999.0,'11111222,11111222,99999999' 
TABS,ioos:station:wmo:42046:1,2006-05-04T10:30:00Z,27.8903,-94.0367,2.0,63.05180703,22.06601233,-99999.0,'11111222,11111222,99999999' 
TABS,ioos:station:wmo:42046:1,2006-05-04T11:00:00Z,27.8903,-94.0367,2.0,61.95513711,19.56764932,-99999.0,'11111222,11111222,99999999' 
TABS,ioos:station:wmo:42046:1,2006-05-04T11:30:00Z,27.8903,-94.0367,2.0,68.83945088,26.06768498,-99999.0,'11111222,11111222,99999999' 
TABS,ioos:station:wmo:42046:1,2006-05-04T12:00:00Z,27.8903,-94.0367,2.0,71.40862045,27.79019971,-99999.0,'11111222,11111222,99999999' 
TABS,ioos:station:wmo:42046:1,2006-05-04T12:30:00Z,27.8903,-94.0367,2.0,73.53956709,27.35096708,-99999.0,'11111222,11111222,99999999' 
TABS,ioos:station:wmo:42046:1,2006-05-04T13:00:00Z,27.8903,-94.0367,2.0,74.13342193,31.96795427,-99999.0,'11111222,11111222,99999999' 
TABS,ioos:station:wmo:42046:1,2006-05-04T13:30:00Z,27.8903,-94.0367,2.0,76.75142643,32.46403549,-99999.0,'11111222,11111222,99999999' 
TABS,ioos:station:wmo:42046:1,2006-05-04T14:00:00Z,27.8903,-94.0367,2.0,80.5061684,32.86007456,-99999.0,'11111222,11111222,99999999' 
TABS,ioos:station:wmo:42046:1,2006-05-04T14:30:00Z,27.8903,-94.0367,2.0,79.62172541,35.58213175,-99999.0,'11111222,11111222,99999999' 
TABS,ioos:station:wmo:42046:1,2006-05-04T15:00:00Z,27.8903,-94.0367,2.0,81.9067154,33.02896456,-99999.0,'11111222,11111222,99999999' 
TABS,ioos:station:wmo:42046:1,2006-05-04T15:30:00Z,27.8903,-94.0367,2.0,91.03958913,35.82589706,-99999.0,'11111222,11111222,99999999' 
TABS,ioos:station:wmo:42046:1,2006-05-04T16:00:00Z,27.8903,-94.0367,2.0,94.23009514,37.01082274,-99999.0,'11111222,11111222,99999999' 